DLH7K EDDF-KBOS

Flight info

Callsign DLH7K
Flight time 8h 0m
Altitude 36000
Route OBOKA2E OBOKA Z28 DIBIR DCT BUDIP DCT MIMVA DCT GETNO DCT KUGUR DCT SUNOT/M079F380 DCT 58N020W 59N030W 59N040W 57N050W DCT HOIST/N0463F380 N746B TAFFY DCT AJJAY OOSHN5
Aircraft A343/H-SDE2E3FGHIJ3J5M1P2RWXYZ/LB1D1

Departure

Time 2026-04-11 02:16
Airport Frankfurt Main Airport (EDDF)

Arrival

Time 2026-04-11 10:16
Airport Boston Logan International Airport (KBOS)
Time Latitude Longitude Altitude Speed Heading
2026-04-11 01:39 50.04726 8.56275 360 ft 0 kts 340°
2026-04-11 01:59 50.04720 8.56279 367 ft 4 kts 340°
2026-04-11 02:00 50.04694 8.56293 367 ft 4 kts 339°
2026-04-11 02:00 50.04669 8.56309 363 ft 4 kts 332°
2026-04-11 02:00 50.04649 8.56331 367 ft 4 kts 295°
2026-04-11 02:00 50.04649 8.56359 367 ft 4 kts 251°
2026-04-11 02:01 50.04658 8.56398 362 ft 4 kts 249°
2026-04-11 02:01 50.04661 8.56411 364 ft 0 kts 250°
2026-04-11 02:05 50.04661 8.56410 364 ft 0 kts 250°
2026-04-11 02:05 50.04657 8.56397 360 ft 3 kts 250°
2026-04-11 02:05 50.04647 8.56354 367 ft 6 kts 250°
2026-04-11 02:06 50.04630 8.56282 367 ft 9 kts 250°
2026-04-11 02:06 50.04607 8.56183 362 ft 11 kts 250°
2026-04-11 02:06 50.04577 8.56059 364 ft 11 kts 250°
2026-04-11 02:06 50.04545 8.55971 368 ft 8 kts 212°
2026-04-11 02:07 50.04492 8.55942 367 ft 8 kts 199°
2026-04-11 02:07 50.04442 8.55914 367 ft 8 kts 198°
2026-04-11 02:07 50.04379 8.55910 366 ft 10 kts 169°
2026-04-11 02:07 50.04309 8.55948 363 ft 9 kts 159°
2026-04-11 02:08 50.04254 8.55951 362 ft 8 kts 210°
2026-04-11 02:08 50.04195 8.55914 363 ft 10 kts 179°
2026-04-11 02:08 50.04128 8.55952 363 ft 10 kts 158°
2026-04-11 02:08 50.04069 8.55980 360 ft 7 kts 182°
2026-04-11 02:09 50.04044 8.55926 360 ft 7 kts 247°
2026-04-11 02:09 50.04025 8.55849 359 ft 9 kts 249°
2026-04-11 02:09 50.04001 8.55749 363 ft 11 kts 249°
2026-04-11 02:09 50.03972 8.55629 359 ft 13 kts 249°
2026-04-11 02:10 50.03940 8.55495 358 ft 13 kts 250°
2026-04-11 02:10 50.03906 8.55354 360 ft 15 kts 249°
2026-04-11 02:10 50.03869 8.55200 361 ft 16 kts 250°
2026-04-11 02:10 50.03830 8.55035 360 ft 17 kts 250°
2026-04-11 02:11 50.03789 8.54862 361 ft 18 kts 250°
2026-04-11 02:11 50.03743 8.54673 356 ft 19 kts 249°
2026-04-11 02:11 50.03694 8.54466 352 ft 21 kts 250°
2026-04-11 02:11 50.03643 8.54251 353 ft 21 kts 250°
2026-04-11 02:12 50.03593 8.54040 351 ft 21 kts 249°
2026-04-11 02:12 50.03542 8.53830 351 ft 21 kts 249°
2026-04-11 02:12 50.03492 8.53619 350 ft 21 kts 249°
2026-04-11 02:12 50.03442 8.53413 353 ft 16 kts 249°
2026-04-11 02:13 50.03416 8.53332 351 ft 7 kts 225°
2026-04-11 02:13 50.03370 8.53334 336 ft 7 kts 156°
2026-04-11 02:13 50.03334 8.53387 336 ft 7 kts 127°
2026-04-11 02:13 50.03306 8.53446 353 ft 6 kts 127°
2026-04-11 02:14 50.03283 8.53496 351 ft 5 kts 123°
2026-04-11 02:14 50.03281 8.53547 349 ft 5 kts 77°
2026-04-11 02:14 50.03296 8.53607 354 ft 7 kts 69°
2026-04-11 02:14 50.03312 8.53673 354 ft 6 kts 69°
2026-04-11 02:15 50.03336 8.53772 353 ft 21 kts 70°
2026-04-11 02:15 50.03451 8.54252 355 ft 73 kts 70°
2026-04-11 02:15 50.03681 8.55213 355 ft 118 kts 70°
2026-04-11 02:15 50.04011 8.56591 366 ft 153 kts 70°
2026-04-11 02:16 50.04414 8.58275 569 ft 170 kts 69°
2026-04-11 02:16 50.04804 8.59982 1134 ft 166 kts 71°
2026-04-11 02:16 50.05186 8.61667 1743 ft 166 kts 73°
2026-04-11 02:16 50.05870 8.63220 1977 ft 191 kts 42°
2026-04-11 02:17 50.07200 8.63842 2276 ft 214 kts 359°
2026-04-11 02:17 50.08683 8.63689 2770 ft 221 kts 358°
2026-04-11 02:17 50.10275 8.63500 3154 ft 238 kts 356°
2026-04-11 02:17 50.11970 8.63272 3687 ft 250 kts 355°
2026-04-11 02:18 50.13735 8.63019 4300 ft 260 kts 355°
2026-04-11 02:18 50.15566 8.62706 4964 ft 267 kts 349°
2026-04-11 02:18 50.17292 8.61659 5728 ft 268 kts 324°
2026-04-11 02:18 50.18560 8.59604 6614 ft 263 kts 298°
2026-04-11 02:19 50.19147 8.56946 7458 ft 259 kts 283°
2026-04-11 02:19 50.19591 8.54221 8225 ft 260 kts 284°
2026-04-11 02:19 50.20029 8.51514 8953 ft 261 kts 283°
2026-04-11 02:19 50.20464 8.48751 9685 ft 263 kts 283°
2026-04-11 02:20 50.20893 8.45968 10348 ft 267 kts 283°
2026-04-11 02:20 50.21334 8.43076 10656 ft 281 kts 283°
2026-04-11 02:20 50.21795 8.40026 10954 ft 296 kts 283°
2026-04-11 02:20 50.22277 8.36826 11247 ft 310 kts 283°
2026-04-11 02:21 50.22781 8.33469 11538 ft 324 kts 283°
2026-04-11 02:21 50.23299 8.30006 11986 ft 331 kts 283°
2026-04-11 02:21 50.23826 8.26479 12540 ft 336 kts 283°
2026-04-11 02:21 50.24350 8.22957 13115 ft 339 kts 283°
2026-04-11 02:22 50.25423 8.15718 14283 ft 345 kts 283°
2026-04-11 02:22 50.25965 8.12045 14809 ft 349 kts 283°
2026-04-11 02:22 50.26513 8.08331 15339 ft 352 kts 283°
2026-04-11 02:23 50.27065 8.04580 15863 ft 356 kts 283°
2026-04-11 02:23 50.27619 8.00802 16392 ft 359 kts 283°
2026-04-11 02:23 50.28170 7.97032 16918 ft 362 kts 283°
2026-04-11 02:23 50.28739 7.93178 17434 ft 365 kts 284°
2026-04-11 02:24 50.29541 7.89399 17956 ft 369 kts 292°
2026-04-11 02:24 50.30582 7.85710 18471 ft 372 kts 294°
2026-04-11 02:24 50.31661 7.82024 18933 ft 374 kts 294°
2026-04-11 02:24 50.32747 7.78307 19433 ft 376 kts 294°
2026-04-11 02:25 50.33834 7.74572 19914 ft 378 kts 294°
2026-04-11 02:25 50.35025 7.70896 20411 ft 380 kts 300°
2026-04-11 02:25 50.36644 7.67599 20882 ft 385 kts 313°
2026-04-11 02:25 50.38703 7.64982 21359 ft 390 kts 325°
2026-04-11 02:26 50.41131 7.63016 21813 ft 396 kts 333°
2026-04-11 02:26 50.43664 7.61274 22211 ft 399 kts 333°
2026-04-11 02:26 50.46218 7.59544 22649 ft 401 kts 333°
2026-04-11 02:26 50.48785 7.57794 23086 ft 403 kts 333°
2026-04-11 02:27 50.51363 7.56025 23509 ft 405 kts 333°
2026-04-11 02:27 50.53948 7.54243 23883 ft 407 kts 332°
2026-04-11 02:27 50.56463 7.52227 24260 ft 405 kts 325°
2026-04-11 02:27 50.58818 7.49913 24632 ft 404 kts 323°
2026-04-11 02:28 50.61171 7.47507 25030 ft 404 kts 323°
2026-04-11 02:28 50.63530 7.45085 25383 ft 405 kts 322°
2026-04-11 02:28 50.65901 7.42650 25694 ft 408 kts 322°
2026-04-11 02:28 50.68287 7.40196 26015 ft 410 kts 322°
2026-04-11 02:29 50.70674 7.37742 26392 ft 410 kts 322°
2026-04-11 02:29 50.72998 7.35157 26751 ft 407 kts 316°
2026-04-11 02:29 50.75056 7.32131 27101 ft 403 kts 308°
2026-04-11 02:29 50.76816 7.28703 27450 ft 401 kts 303°
2026-04-11 02:30 50.78466 7.25159 27775 ft 401 kts 302°
2026-04-11 02:30 50.80048 7.21615 28116 ft 401 kts 301°
2026-04-11 02:30 50.81639 7.17987 28452 ft 401 kts 301°
2026-04-11 02:30 50.83225 7.14358 28771 ft 401 kts 301°
2026-04-11 02:31 50.84818 7.10725 29081 ft 402 kts 301°
2026-04-11 02:31 50.86415 7.07099 29399 ft 403 kts 301°
2026-04-11 02:31 50.88025 7.03455 29642 ft 404 kts 301°
2026-04-11 02:31 50.89639 6.99807 29912 ft 405 kts 301°
2026-04-11 02:32 50.91258 6.96149 30174 ft 406 kts 301°
2026-04-11 02:32 50.92880 6.92484 30370 ft 407 kts 301°
2026-04-11 02:32 50.94486 6.88849 30554 ft 409 kts 301°
2026-04-11 02:32 50.96120 6.85146 30709 ft 410 kts 301°
2026-04-11 02:33 50.97752 6.81440 30995 ft 409 kts 300°
2026-04-11 02:33 50.99379 6.77744 31271 ft 408 kts 300°
2026-04-11 02:33 51.01005 6.74045 31546 ft 408 kts 300°
2026-04-11 02:33 51.02623 6.70355 31800 ft 407 kts 300°
2026-04-11 02:34 51.04239 6.66667 32066 ft 406 kts 300°
2026-04-11 02:34 51.05850 6.62982 32331 ft 406 kts 300°
2026-04-11 02:34 51.07463 6.59287 32508 ft 407 kts 299°
2026-04-11 02:34 51.09073 6.55593 32708 ft 407 kts 299°
2026-04-11 02:35 51.10687 6.51887 32981 ft 406 kts 299°
2026-04-11 02:35 51.12269 6.48248 33197 ft 406 kts 299°
2026-04-11 02:35 51.13870 6.44557 33457 ft 405 kts 299°
2026-04-11 02:35 51.15468 6.40867 33710 ft 404 kts 299°
2026-04-11 02:36 51.17063 6.37181 33981 ft 403 kts 298°
2026-04-11 02:36 51.18646 6.33520 34272 ft 400 kts 298°
2026-04-11 02:36 51.20217 6.29881 34482 ft 399 kts 298°
2026-04-11 02:36 51.21786 6.26239 34679 ft 398 kts 299°
2026-04-11 02:37 51.23329 6.22651 34872 ft 397 kts 299°
2026-04-11 02:37 51.24887 6.19025 35056 ft 396 kts 298°
2026-04-11 02:37 51.26443 6.15394 35164 ft 397 kts 298°
2026-04-11 02:37 51.28004 6.11749 35307 ft 397 kts 298°
2026-04-11 02:38 51.29543 6.08101 35498 ft 396 kts 297°
2026-04-11 02:38 51.31052 6.04429 35669 ft 394 kts 297°
2026-04-11 02:38 51.32540 6.00761 35850 ft 393 kts 297°
2026-04-11 02:38 51.34022 5.97097 35988 ft 393 kts 297°
2026-04-11 02:39 51.35511 5.93416 36013 ft 393 kts 297°
2026-04-11 02:39 51.38793 5.86490 36013 ft 398 kts 307°
2026-04-11 02:40 51.42846 5.80396 36016 ft 401 kts 310°
2026-04-11 02:40 51.47029 5.74465 36019 ft 401 kts 310°
2026-04-11 02:41 51.51224 5.68544 36019 ft 402 kts 310°
2026-04-11 02:41 51.55392 5.62621 36019 ft 403 kts 310°
2026-04-11 02:42 51.59575 5.56641 35999 ft 403 kts 310°
2026-04-11 02:42 51.63755 5.50644 36000 ft 402 kts 310°
2026-04-11 02:43 51.67929 5.44639 36003 ft 402 kts 310°
2026-04-11 02:43 51.72098 5.38627 36002 ft 402 kts 310°
2026-04-11 02:44 51.76230 5.32654 36006 ft 401 kts 309°
2026-04-11 02:44 51.80397 5.26610 36002 ft 404 kts 309°
2026-04-11 02:45 51.84576 5.20536 35999 ft 404 kts 309°
2026-04-11 02:45 51.88752 5.14454 36001 ft 404 kts 309°
2026-04-11 02:46 51.92923 5.08362 35999 ft 404 kts 309°
2026-04-11 02:46 51.97056 5.02311 35994 ft 403 kts 309°
2026-04-11 02:47 52.01216 4.96202 35992 ft 403 kts 309°
2026-04-11 02:47 52.05371 4.90083 36007 ft 403 kts 309°
2026-04-11 02:48 52.09530 4.83943 36016 ft 405 kts 308°
2026-04-11 02:48 52.13679 4.77799 36002 ft 406 kts 308°
2026-04-11 02:49 52.17856 4.71604 36008 ft 406 kts 308°
2026-04-11 02:49 52.22031 4.65395 35991 ft 406 kts 308°
2026-04-11 02:50 52.26200 4.59175 35994 ft 406 kts 308°
2026-04-11 02:50 52.30338 4.52984 35981 ft 406 kts 308°
2026-04-11 02:51 52.34501 4.46741 35982 ft 406 kts 308°
2026-04-11 02:51 52.38660 4.40485 35982 ft 406 kts 308°
2026-04-11 02:52 52.42814 4.34223 35972 ft 406 kts 308°
2026-04-11 02:52 52.46939 4.27987 35977 ft 406 kts 308°
2026-04-11 02:53 52.51083 4.21705 35974 ft 405 kts 308°
2026-04-11 02:53 52.55215 4.15423 35963 ft 405 kts 308°
2026-04-11 02:54 52.59349 4.09122 35965 ft 405 kts 308°
2026-04-11 02:54 52.63451 4.02853 35969 ft 405 kts 308°
2026-04-11 02:55 52.67580 3.96525 35957 ft 407 kts 307°
2026-04-11 02:55 52.71728 3.90146 35947 ft 408 kts 307°
2026-04-11 02:56 52.75877 3.83759 35949 ft 408 kts 307°
2026-04-11 02:56 52.79993 3.77403 35939 ft 408 kts 307°
2026-04-11 02:57 52.84130 3.70994 35952 ft 408 kts 307°
2026-04-11 02:57 52.88261 3.64578 35944 ft 408 kts 307°
2026-04-11 02:58 52.92393 3.58141 35938 ft 408 kts 307°
2026-04-11 02:58 52.96520 3.51695 35959 ft 408 kts 306°
2026-04-11 02:59 53.00633 3.45246 35944 ft 411 kts 306°
2026-04-11 02:59 53.04795 3.38709 35925 ft 411 kts 306°
2026-04-11 03:00 53.08584 3.31795 35925 ft 397 kts 295°
2026-04-11 03:00 53.11024 3.23796 35908 ft 381 kts 281°
2026-04-11 03:01 53.12446 3.15354 35904 ft 378 kts 278°
2026-04-11 03:01 53.13700 3.06912 35903 ft 378 kts 278°
2026-04-11 03:02 53.14952 2.98383 35909 ft 380 kts 277°
2026-04-11 03:02 53.16220 2.89846 35908 ft 380 kts 277°
2026-04-11 03:03 53.17497 2.81275 35902 ft 380 kts 277°
2026-04-11 03:03 53.18757 2.72779 35900 ft 380 kts 277°
2026-04-11 03:04 53.20020 2.64215 35888 ft 380 kts 277°
2026-04-11 03:04 53.21275 2.55650 35888 ft 380 kts 277°
2026-04-11 03:05 53.22315 2.48507 35890 ft 381 kts 276°
2026-04-11 03:05 53.23765 2.38494 35881 ft 382 kts 276°
2026-04-11 03:06 53.25009 2.29866 35881 ft 383 kts 276°
2026-04-11 03:06 53.26040 2.22682 35865 ft 382 kts 276°
2026-04-11 03:07 53.27274 2.14035 35866 ft 382 kts 276°
2026-04-11 03:07 53.28498 2.05404 35866 ft 382 kts 276°
2026-04-11 03:08 53.30321 1.92453 35851 ft 384 kts 275°
2026-04-11 03:08 53.31535 1.83769 35836 ft 384 kts 275°
2026-04-11 03:09 53.32744 1.75080 35838 ft 384 kts 275°
2026-04-11 03:09 53.34140 1.64978 35836 ft 383 kts 275°
2026-04-11 03:10 53.35133 1.57745 35824 ft 383 kts 275°
2026-04-11 03:10 53.36319 1.49054 35825 ft 384 kts 274°
2026-04-11 03:11 53.37504 1.40324 35812 ft 385 kts 274°
2026-04-11 03:11 53.38683 1.31591 35809 ft 385 kts 274°
2026-04-11 03:12 53.39858 1.22847 35801 ft 385 kts 274°
2026-04-11 03:12 53.41017 1.14156 35801 ft 385 kts 274°
2026-04-11 03:13 53.42178 1.05405 35797 ft 384 kts 274°
2026-04-11 03:13 53.43332 0.96639 35794 ft 386 kts 273°
2026-04-11 03:14 53.44484 0.87826 35788 ft 388 kts 273°
2026-04-11 03:14 53.45636 0.78985 35776 ft 388 kts 273°
2026-04-11 03:15 53.46774 0.70199 35776 ft 388 kts 273°
2026-04-11 03:15 53.47912 0.61355 35763 ft 388 kts 272°
2026-04-11 03:16 53.49042 0.52506 35762 ft 388 kts 272°
2026-04-11 03:16 53.50168 0.43620 35769 ft 391 kts 272°
2026-04-11 03:17 53.51289 0.34715 35756 ft 393 kts 272°
2026-04-11 03:17 53.52416 0.25738 35757 ft 393 kts 272°
2026-04-11 03:18 53.53537 0.16750 35748 ft 393 kts 272°
2026-04-11 03:18 53.54649 0.07767 35750 ft 393 kts 272°
2026-04-11 03:19 53.55754 -0.01227 35764 ft 393 kts 272°
2026-04-11 03:19 53.56848 -0.10205 35744 ft 397 kts 271°
2026-04-11 03:20 53.57951 -0.19319 35747 ft 398 kts 271°
2026-04-11 03:20 53.59052 -0.28438 35746 ft 398 kts 271°
2026-04-11 03:21 53.60144 -0.37553 35746 ft 397 kts 271°
2026-04-11 03:21 53.61221 -0.46622 35748 ft 397 kts 271°
2026-04-11 03:22 53.62297 -0.55747 35741 ft 397 kts 271°
2026-04-11 03:22 53.63367 -0.64882 35733 ft 397 kts 271°
2026-04-11 03:23 53.64429 -0.74012 35726 ft 397 kts 271°
2026-04-11 03:23 53.65486 -0.83159 35712 ft 397 kts 271°
2026-04-11 03:24 53.66527 -0.92236 35704 ft 397 kts 271°
2026-04-11 03:24 53.67568 -1.01380 35702 ft 397 kts 271°
2026-04-11 03:25 53.68604 -1.10552 35695 ft 399 kts 270°
2026-04-11 03:25 53.69638 -1.19791 35694 ft 402 kts 270°
2026-04-11 03:26 53.70671 -1.29055 35683 ft 402 kts 270°
2026-04-11 03:26 53.71692 -1.38258 35684 ft 401 kts 270°
2026-04-11 03:27 53.72710 -1.47527 35675 ft 401 kts 270°
2026-04-11 03:27 53.73719 -1.56804 35735 ft 403 kts 270°
2026-04-11 03:28 53.74726 -1.66177 35680 ft 408 kts 270°
2026-04-11 03:28 53.75733 -1.75549 35674 ft 408 kts 270°
2026-04-11 03:29 53.76742 -1.84995 35669 ft 408 kts 270°
2026-04-11 03:29 53.77741 -1.94437 35650 ft 408 kts 270°
2026-04-11 03:30 53.78732 -2.03881 35656 ft 408 kts 270°
2026-04-11 03:30 53.79706 -2.13261 35661 ft 408 kts 269°
2026-04-11 03:31 53.80680 -2.22720 35649 ft 408 kts 269°
2026-04-11 03:31 53.81650 -2.32198 35641 ft 408 kts 269°
2026-04-11 03:32 53.82611 -2.41670 35639 ft 408 kts 269°
2026-04-11 03:32 53.83558 -2.51082 35631 ft 408 kts 269°
2026-04-11 03:33 53.84505 -2.60567 35621 ft 408 kts 269°
2026-04-11 03:33 53.85444 -2.70074 35625 ft 411 kts 268°
2026-04-11 03:34 53.86380 -2.79639 35620 ft 412 kts 268°
2026-04-11 03:34 53.87313 -2.89217 35619 ft 412 kts 268°
2026-04-11 03:35 53.88234 -2.98740 35614 ft 412 kts 268°
2026-04-11 03:35 53.89150 -3.08325 35614 ft 412 kts 268°
2026-04-11 03:36 53.90059 -3.17921 35626 ft 413 kts 268°
2026-04-11 03:36 53.90961 -3.27568 35606 ft 417 kts 268°
2026-04-11 03:37 53.91862 -3.37248 35599 ft 417 kts 268°
2026-04-11 03:37 53.92840 -3.46978 35598 ft 423 kts 272°
2026-04-11 03:38 53.93726 -3.51808 35601 ft 435 kts 280°
2026-04-11 03:38 53.94908 -3.56564 35611 ft 440 kts 282°
2026-04-11 03:38 53.97488 -3.66045 35592 ft 444 kts 283°
2026-04-11 03:39 54.00152 -3.75545 35587 ft 446 kts 284°
2026-04-11 03:39 54.02785 -3.85020 35578 ft 446 kts 284°
2026-04-11 03:40 54.05411 -3.94583 35583 ft 446 kts 283°
2026-04-11 03:40 54.08022 -4.04166 35567 ft 446 kts 283°
2026-04-11 03:41 54.10625 -4.13762 35556 ft 446 kts 283°
2026-04-11 03:41 54.13202 -4.23300 35631 ft 446 kts 283°
2026-04-11 03:42 54.15795 -4.32946 35560 ft 449 kts 283°
2026-04-11 03:42 54.18391 -4.42639 35564 ft 450 kts 283°
2026-04-11 03:43 54.20997 -4.52401 35550 ft 452 kts 283°
2026-04-11 03:43 54.23594 -4.62167 35551 ft 452 kts 283°
2026-04-11 03:44 54.26168 -4.71889 35542 ft 452 kts 283°
2026-04-11 03:44 54.28750 -4.81688 35566 ft 452 kts 283°
2026-04-11 03:45 54.31328 -4.91528 35540 ft 454 kts 283°
2026-04-11 03:45 54.33910 -5.01416 35539 ft 455 kts 283°
2026-04-11 03:46 54.36470 -5.11251 35535 ft 455 kts 283°
2026-04-11 03:46 54.39036 -5.21162 35556 ft 455 kts 283°
2026-04-11 03:47 54.41597 -5.31105 35530 ft 457 kts 283°
2026-04-11 03:47 54.44162 -5.41108 35533 ft 458 kts 283°
2026-04-11 03:48 54.46731 -5.51164 35512 ft 460 kts 283°
2026-04-11 03:48 54.49276 -5.61167 35503 ft 460 kts 283°
2026-04-11 03:49 54.51830 -5.71249 35502 ft 460 kts 283°
2026-04-11 03:49 54.54376 -5.81349 35495 ft 460 kts 283°
2026-04-11 03:50 54.56913 -5.91459 35491 ft 459 kts 283°
2026-04-11 03:50 54.59421 -6.01506 35492 ft 459 kts 283°
2026-04-11 03:51 54.61937 -6.11631 35471 ft 460 kts 283°
2026-04-11 03:51 54.64453 -6.21806 35469 ft 461 kts 283°
2026-04-11 03:52 54.66966 -6.32007 35470 ft 461 kts 283°
2026-04-11 03:52 54.69468 -6.42214 35470 ft 461 kts 283°
2026-04-11 03:53 54.71962 -6.52434 35487 ft 461 kts 283°
2026-04-11 03:53 54.74428 -6.62584 35453 ft 461 kts 283°
2026-04-11 03:54 54.76899 -6.72810 35442 ft 461 kts 283°
2026-04-11 03:54 54.79365 -6.83061 35434 ft 461 kts 283°
2026-04-11 03:55 54.81804 -6.93242 35443 ft 461 kts 283°
2026-04-11 03:55 54.84256 -7.03536 35422 ft 462 kts 283°
2026-04-11 03:56 54.86706 -7.13877 35407 ft 464 kts 283°
2026-04-11 03:56 54.89157 -7.24258 35393 ft 465 kts 283°
2026-04-11 03:57 54.91607 -7.34675 35396 ft 465 kts 283°
2026-04-11 03:57 54.94028 -7.45025 35368 ft 465 kts 283°
2026-04-11 03:58 54.96452 -7.55446 35365 ft 465 kts 283°
2026-04-11 03:58 54.98868 -7.65883 35401 ft 465 kts 283°
2026-04-11 03:59 55.01281 -7.76367 35347 ft 467 kts 283°
2026-04-11 03:59 55.03683 -7.86850 35338 ft 470 kts 283°
2026-04-11 04:00 55.06099 -7.97439 35326 ft 470 kts 283°
2026-04-11 04:00 55.08509 -8.08051 35321 ft 470 kts 283°
2026-04-11 04:01 55.10908 -8.18670 35295 ft 470 kts 283°
2026-04-11 04:01 55.13297 -8.29309 35312 ft 471 kts 284°
2026-04-11 04:02 55.15668 -8.39919 35272 ft 473 kts 283°
2026-04-11 04:02 55.18050 -8.50626 35259 ft 473 kts 283°
2026-04-11 04:03 55.20426 -8.61357 35239 ft 473 kts 283°
2026-04-11 04:03 55.22785 -8.72073 35244 ft 473 kts 283°
2026-04-11 04:04 55.25130 -8.82782 35236 ft 473 kts 283°
2026-04-11 04:04 55.27479 -8.93564 35200 ft 473 kts 284°
2026-04-11 04:05 55.29816 -9.04345 35200 ft 472 kts 283°
2026-04-11 04:05 55.32141 -9.15130 35184 ft 473 kts 283°
2026-04-11 04:06 55.34442 -9.25866 35164 ft 473 kts 284°
2026-04-11 04:06 55.36750 -9.36682 35142 ft 473 kts 283°
2026-04-11 04:07 55.39045 -9.47496 35167 ft 472 kts 283°
2026-04-11 04:07 55.41326 -9.58296 35113 ft 469 kts 284°
2026-04-11 04:08 55.43574 -9.69005 35101 ft 471 kts 283°
2026-04-11 04:08 55.45834 -9.79841 35102 ft 472 kts 284°
2026-04-11 04:09 55.48089 -9.90693 35075 ft 472 kts 283°
2026-04-11 04:09 55.50596 -10.01439 35056 ft 479 kts 291°
2026-04-11 04:10 55.53834 -10.11651 35032 ft 481 kts 294°
2026-04-11 04:10 55.57212 -10.21818 35001 ft 480 kts 293°
2026-04-11 04:11 55.60595 -10.32005 34997 ft 480 kts 292°
2026-04-11 04:11 55.63950 -10.42228 34969 ft 480 kts 292°
2026-04-11 04:12 55.67286 -10.52465 34951 ft 480 kts 292°
2026-04-11 04:12 55.70594 -10.62655 34918 ft 480 kts 292°
2026-04-11 04:13 55.73910 -10.72906 34955 ft 480 kts 292°
2026-04-11 04:13 55.77217 -10.83170 34917 ft 477 kts 292°
2026-04-11 04:14 55.80493 -10.93407 34886 ft 476 kts 292°
2026-04-11 04:14 55.83741 -11.03589 34868 ft 478 kts 292°
2026-04-11 04:15 55.88649 -11.19042 34837 ft 478 kts 294°
2026-04-11 04:16 55.91919 -11.29353 34815 ft 478 kts 293°
2026-04-11 04:16 55.95148 -11.39627 34802 ft 478 kts 292°
2026-04-11 04:17 55.98400 -11.49956 34791 ft 477 kts 293°
2026-04-11 04:17 56.01624 -11.60310 34764 ft 477 kts 292°
2026-04-11 04:18 56.04827 -11.70670 34765 ft 477 kts 294°
2026-04-11 04:18 56.08042 -11.81100 34738 ft 478 kts 294°
2026-04-11 04:19 56.11240 -11.91458 34738 ft 478 kts 294°
2026-04-11 04:19 56.14444 -12.01900 34704 ft 478 kts 294°
2026-04-11 04:20 56.17644 -12.12362 34680 ft 478 kts 292°
2026-04-11 04:20 56.20826 -12.22853 34647 ft 478 kts 293°
2026-04-11 04:21 56.23976 -12.33296 34631 ft 478 kts 293°
2026-04-11 04:21 56.27162 -12.43826 34626 ft 480 kts 291°
2026-04-11 04:22 56.30330 -12.54412 34591 ft 481 kts 291°
2026-04-11 04:22 56.33483 -12.65015 34567 ft 480 kts 292°
2026-04-11 04:23 56.36613 -12.75552 34551 ft 480 kts 294°
2026-04-11 04:23 56.39760 -12.86142 34514 ft 479 kts 291°
2026-04-11 04:24 56.42877 -12.96759 34514 ft 478 kts 292°
2026-04-11 04:24 56.45994 -13.07393 34492 ft 480 kts 292°
2026-04-11 04:25 56.49109 -13.18081 34473 ft 481 kts 292°
2026-04-11 04:25 56.52201 -13.28734 34478 ft 481 kts 292°
2026-04-11 04:26 56.55299 -13.39480 34464 ft 480 kts 292°
2026-04-11 04:26 56.58386 -13.50204 34472 ft 479 kts 294°
2026-04-11 04:27 56.61436 -13.60832 34466 ft 478 kts 293°
2026-04-11 04:27 56.64487 -13.71547 34484 ft 478 kts 294°
2026-04-11 04:28 56.67542 -13.82316 34481 ft 480 kts 294°
2026-04-11 04:28 56.70588 -13.93114 34505 ft 479 kts 294°
2026-04-11 04:29 56.73625 -14.03907 34519 ft 479 kts 294°
2026-04-11 04:29 56.76632 -14.14649 34562 ft 479 kts 294°
2026-04-11 04:30 56.79645 -14.25470 34563 ft 477 kts 294°
2026-04-11 04:30 56.82635 -14.36253 34568 ft 477 kts 294°
2026-04-11 04:31 56.85626 -14.47108 34580 ft 479 kts 294°
2026-04-11 04:31 56.88592 -14.57911 34595 ft 479 kts 294°
2026-04-11 04:32 56.91576 -14.68816 34597 ft 480 kts 293°
2026-04-11 04:32 56.94552 -14.79771 34626 ft 480 kts 294°
2026-04-11 04:33 56.97511 -14.90706 34631 ft 478 kts 294°
2026-04-11 04:33 57.00457 -15.01644 34783 ft 479 kts 294°
2026-04-11 04:33 57.01832 -15.07211 34965 ft 478 kts 290°
2026-04-11 04:34 57.03080 -15.12784 35007 ft 480 kts 289°
2026-04-11 04:34 57.05526 -15.24222 35225 ft 481 kts 289°
2026-04-11 04:34 57.06757 -15.29942 35418 ft 480 kts 290°
2026-04-11 04:35 57.07997 -15.35639 35579 ft 480 kts 290°
2026-04-11 04:35 57.09247 -15.41323 35693 ft 481 kts 289°
2026-04-11 04:35 57.10506 -15.47034 35760 ft 482 kts 290°
2026-04-11 04:35 57.11765 -15.52739 35943 ft 481 kts 290°
2026-04-11 04:36 57.13000 -15.58344 36114 ft 480 kts 289°
2026-04-11 04:36 57.14251 -15.64038 36298 ft 478 kts 289°
2026-04-11 04:36 57.15494 -15.69718 36425 ft 478 kts 289°
2026-04-11 04:36 57.16735 -15.75408 36558 ft 478 kts 290°
2026-04-11 04:37 57.17971 -15.81096 36684 ft 478 kts 290°
2026-04-11 04:37 57.20442 -15.92500 36735 ft 480 kts 289°
2026-04-11 04:38 57.22893 -16.03888 36737 ft 479 kts 290°
2026-04-11 04:38 57.25341 -16.15317 36757 ft 479 kts 289°
2026-04-11 04:39 57.27778 -16.26758 36760 ft 479 kts 290°
2026-04-11 04:39 57.30204 -16.38217 36769 ft 476 kts 289°
2026-04-11 04:40 57.32587 -16.49528 36785 ft 474 kts 289°
2026-04-11 04:40 57.34968 -16.60904 36784 ft 475 kts 290°
2026-04-11 04:41 57.37344 -16.72314 36808 ft 475 kts 290°
2026-04-11 04:41 57.39715 -16.83762 36810 ft 476 kts 289°
2026-04-11 04:42 57.42079 -16.95241 36809 ft 477 kts 289°
2026-04-11 04:42 57.44434 -17.06744 36835 ft 475 kts 289°
2026-04-11 04:43 57.46748 -17.18111 36834 ft 473 kts 289°
2026-04-11 04:43 57.49063 -17.29550 36846 ft 473 kts 290°
2026-04-11 04:44 57.51369 -17.41010 36857 ft 473 kts 289°
2026-04-11 04:44 57.53662 -17.52473 36857 ft 473 kts 290°
2026-04-11 04:45 57.55933 -17.63881 36871 ft 473 kts 289°
2026-04-11 04:45 57.58207 -17.75381 36882 ft 473 kts 289°
2026-04-11 04:46 57.60464 -17.86858 36890 ft 470 kts 289°
2026-04-11 04:46 57.62702 -17.98311 36892 ft 470 kts 289°
2026-04-11 04:47 57.64933 -18.09790 36888 ft 470 kts 289°
2026-04-11 04:47 57.67137 -18.21199 36899 ft 471 kts 289°
2026-04-11 04:48 57.69349 -18.32715 36900 ft 470 kts 289°
2026-04-11 04:48 57.71551 -18.44251 36911 ft 472 kts 289°
2026-04-11 04:49 57.73733 -18.55751 36918 ft 470 kts 289°
2026-04-11 04:49 57.75904 -18.67259 36919 ft 468 kts 289°
2026-04-11 04:50 57.78061 -18.78758 36933 ft 468 kts 289°
2026-04-11 04:50 57.80208 -18.90279 36934 ft 469 kts 289°
2026-04-11 04:51 57.82332 -19.01745 36933 ft 468 kts 289°
2026-04-11 04:51 57.84455 -19.13273 36953 ft 468 kts 289°
2026-04-11 04:52 57.86569 -19.24827 36950 ft 468 kts 289°
2026-04-11 04:52 57.88679 -19.36424 36962 ft 470 kts 289°
2026-04-11 04:53 57.90787 -19.48085 36977 ft 471 kts 289°
2026-04-11 04:53 57.92871 -19.59684 36976 ft 471 kts 289°
2026-04-11 04:54 57.94957 -19.71374 36985 ft 471 kts 289°
2026-04-11 04:54 57.97033 -19.83075 36995 ft 471 kts 288°
2026-04-11 04:55 57.99094 -19.94763 36997 ft 471 kts 288°
2026-04-11 04:55 58.01079 -20.06436 37004 ft 469 kts 286°
2026-04-11 04:56 58.02729 -20.18305 37020 ft 468 kts 284°
2026-04-11 04:56 58.04315 -20.30225 37033 ft 468 kts 285°
2026-04-11 04:57 58.05938 -20.42106 37033 ft 468 kts 285°
2026-04-11 04:57 58.07582 -20.54001 37056 ft 468 kts 285°
2026-04-11 04:58 58.09214 -20.65853 37071 ft 469 kts 285°
2026-04-11 04:58 58.10839 -20.77767 37069 ft 467 kts 285°
2026-04-11 04:59 58.12442 -20.89619 37118 ft 465 kts 285°
2026-04-11 04:59 58.14034 -21.01471 37116 ft 465 kts 285°
2026-04-11 05:00 58.15608 -21.13289 37118 ft 466 kts 285°
2026-04-11 05:00 58.17181 -21.25200 37170 ft 466 kts 285°
2026-04-11 05:01 58.18741 -21.37099 37172 ft 466 kts 285°
2026-04-11 05:01 58.20290 -21.49014 37191 ft 466 kts 284°
2026-04-11 05:02 58.21831 -21.60962 37189 ft 465 kts 285°
2026-04-11 05:02 58.23345 -21.72792 37217 ft 464 kts 285°
2026-04-11 05:03 58.24857 -21.84703 37240 ft 465 kts 284°
2026-04-11 05:03 58.26362 -21.96656 37243 ft 466 kts 284°
2026-04-11 05:04 58.27855 -22.08617 37284 ft 466 kts 285°
2026-04-11 05:04 58.29326 -22.20501 37276 ft 466 kts 284°
2026-04-11 05:05 58.31524 -22.38448 37308 ft 464 kts 284°
2026-04-11 05:05 58.32972 -22.50400 37326 ft 463 kts 284°
2026-04-11 05:06 58.34404 -22.62317 37327 ft 461 kts 284°
2026-04-11 05:06 58.35817 -22.74160 37351 ft 462 kts 284°
2026-04-11 05:07 58.37228 -22.86106 37375 ft 463 kts 284°
2026-04-11 05:07 58.38630 -22.98080 37406 ft 462 kts 284°
2026-04-11 05:08 58.40001 -23.09902 37389 ft 454 kts 283°
2026-04-11 05:08 58.41347 -23.21596 37423 ft 455 kts 283°
2026-04-11 05:09 58.42696 -23.33420 37428 ft 456 kts 283°
2026-04-11 05:09 58.44033 -23.45244 37424 ft 455 kts 284°
2026-04-11 05:10 58.45354 -23.57034 37440 ft 454 kts 283°
2026-04-11 05:10 58.46671 -23.68878 37463 ft 457 kts 283°
2026-04-11 05:11 58.47967 -23.80658 37469 ft 454 kts 284°
2026-04-11 05:11 58.49243 -23.92367 37463 ft 448 kts 283°
2026-04-11 05:12 58.50509 -24.04071 37503 ft 451 kts 283°
2026-04-11 05:12 58.51774 -24.15865 37496 ft 454 kts 283°
2026-04-11 05:13 58.53018 -24.27604 37519 ft 452 kts 283°
2026-04-11 05:13 58.54253 -24.39356 37530 ft 451 kts 283°
2026-04-11 05:14 58.55483 -24.51166 37541 ft 454 kts 282°
2026-04-11 05:14 58.56705 -24.63016 37545 ft 451 kts 283°
2026-04-11 05:15 58.57895 -24.74673 37540 ft 448 kts 282°
2026-04-11 05:15 58.59084 -24.86406 37570 ft 450 kts 282°
2026-04-11 05:16 58.60270 -24.98236 37574 ft 453 kts 282°
2026-04-11 05:16 58.61443 -25.10071 37585 ft 450 kts 282°
2026-04-11 05:17 58.62598 -25.21835 37596 ft 449 kts 281°
2026-04-11 05:17 58.63739 -25.33570 37603 ft 452 kts 282°
2026-04-11 05:18 58.64878 -25.45399 37618 ft 449 kts 282°
2026-04-11 05:18 58.65995 -25.57121 37619 ft 446 kts 281°
2026-04-11 05:19 58.67105 -25.68879 37624 ft 449 kts 282°
2026-04-11 05:19 58.68205 -25.80648 37627 ft 450 kts 282°
2026-04-11 05:20 58.69296 -25.92466 37626 ft 447 kts 281°
2026-04-11 05:20 58.70371 -26.04234 37639 ft 448 kts 281°
2026-04-11 05:21 58.71443 -26.16089 37651 ft 450 kts 281°
2026-04-11 05:21 58.72503 -26.27935 37649 ft 448 kts 281°
2026-04-11 05:22 58.73541 -26.39661 37653 ft 448 kts 281°
2026-04-11 05:22 58.74578 -26.51504 37659 ft 450 kts 281°
2026-04-11 05:23 58.75604 -26.63366 37660 ft 448 kts 281°
2026-04-11 05:23 58.76616 -26.75191 37669 ft 447 kts 280°
2026-04-11 05:24 58.77614 -26.86973 37675 ft 450 kts 280°
2026-04-11 05:24 58.78609 -26.98862 37683 ft 449 kts 280°
2026-04-11 05:25 58.79589 -27.10721 37686 ft 448 kts 280°
2026-04-11 05:25 58.80561 -27.22605 37689 ft 449 kts 280°
2026-04-11 05:26 58.81517 -27.34439 37702 ft 449 kts 280°
2026-04-11 05:26 58.82465 -27.46321 37697 ft 448 kts 279°
2026-04-11 05:27 58.83403 -27.58217 37688 ft 449 kts 279°
2026-04-11 05:27 58.84332 -27.70133 37708 ft 448 kts 279°
2026-04-11 05:28 58.85247 -27.82027 37709 ft 447 kts 279°
2026-04-11 05:28 58.86144 -27.93835 37722 ft 448 kts 279°
2026-04-11 05:29 58.87038 -28.05749 37727 ft 448 kts 279°
2026-04-11 05:29 58.87921 -28.17677 37725 ft 448 kts 279°
2026-04-11 05:30 58.88794 -28.29616 37731 ft 449 kts 279°
2026-04-11 05:30 58.89651 -28.41496 37737 ft 448 kts 279°
2026-04-11 05:31 58.90499 -28.53400 37747 ft 445 kts 279°
2026-04-11 05:31 58.91332 -28.65264 37749 ft 446 kts 279°
2026-04-11 05:32 58.92157 -28.77169 37749 ft 446 kts 279°
2026-04-11 05:32 58.92958 -28.89058 37758 ft 445 kts 278°
2026-04-11 05:33 58.93750 -29.00869 37762 ft 446 kts 279°
2026-04-11 05:33 58.94537 -29.12796 37762 ft 447 kts 278°
2026-04-11 05:34 58.95310 -29.24736 37770 ft 448 kts 278°
2026-04-11 05:34 58.96080 -29.36718 37767 ft 448 kts 278°
2026-04-11 05:35 58.96837 -29.48697 37778 ft 448 kts 278°
2026-04-11 05:35 58.97580 -29.60609 37777 ft 448 kts 278°
2026-04-11 05:36 58.98324 -29.72602 37780 ft 448 kts 278°
2026-04-11 05:36 58.99076 -29.84602 37782 ft 448 kts 278°
2026-04-11 05:37 58.99809 -29.96606 37765 ft 448 kts 278°
2026-04-11 05:37 59.00442 -30.08539 37783 ft 448 kts 276°
2026-04-11 05:38 59.00856 -30.20589 37790 ft 448 kts 275°
2026-04-11 05:38 59.01245 -30.32654 37790 ft 448 kts 275°
2026-04-11 05:39 59.01656 -30.44723 37796 ft 448 kts 275°
2026-04-11 05:39 59.02073 -30.56787 37796 ft 448 kts 275°
2026-04-11 05:40 59.02480 -30.68769 37795 ft 448 kts 275°
2026-04-11 05:40 59.02877 -30.80834 37795 ft 447 kts 275°
2026-04-11 05:41 59.03260 -30.92852 37803 ft 445 kts 275°
2026-04-11 05:41 59.03631 -31.04852 37803 ft 445 kts 275°
2026-04-11 05:42 59.03989 -31.16769 37805 ft 445 kts 275°
2026-04-11 05:42 59.04339 -31.28797 37800 ft 446 kts 275°
2026-04-11 05:43 59.04678 -31.40826 37805 ft 446 kts 275°
2026-04-11 05:43 59.04951 -31.50831 37781 ft 446 kts 275°
2026-04-11 05:44 59.05318 -31.64787 37802 ft 443 kts 275°
2026-04-11 05:44 59.05621 -31.76732 37799 ft 443 kts 275°
2026-04-11 05:45 59.05865 -31.86677 37796 ft 443 kts 274°
2026-04-11 05:45 59.06193 -32.00575 37788 ft 443 kts 274°
2026-04-11 05:46 59.06463 -32.12526 37794 ft 443 kts 274°
2026-04-11 05:46 59.06680 -32.22470 37792 ft 443 kts 274°
2026-04-11 05:47 59.06930 -32.34431 37782 ft 442 kts 274°
2026-04-11 05:47 59.07168 -32.46361 37786 ft 441 kts 274°
2026-04-11 05:48 59.07431 -32.60200 37784 ft 441 kts 274°
2026-04-11 05:48 59.07646 -32.72124 37778 ft 441 kts 274°
2026-04-11 05:49 59.07816 -32.82037 37778 ft 441 kts 274°
2026-04-11 05:49 59.08011 -32.93970 37776 ft 441 kts 274°
2026-04-11 05:50 59.08194 -33.05904 37741 ft 441 kts 274°
2026-04-11 05:50 59.08366 -33.17804 37774 ft 439 kts 273°
2026-04-11 05:51 59.08526 -33.29588 37774 ft 438 kts 273°
2026-04-11 05:51 59.08676 -33.41442 37778 ft 439 kts 273°
2026-04-11 05:52 59.08816 -33.53316 37771 ft 440 kts 273°
2026-04-11 05:52 59.08945 -33.65198 37772 ft 440 kts 273°
2026-04-11 05:53 59.09062 -33.77006 37773 ft 440 kts 273°
2026-04-11 05:53 59.09169 -33.88902 37769 ft 439 kts 273°
2026-04-11 05:54 59.09264 -34.00748 37776 ft 437 kts 272°
2026-04-11 05:54 59.09349 -34.12583 37771 ft 437 kts 272°
2026-04-11 05:55 59.09423 -34.24315 37774 ft 437 kts 272°
2026-04-11 05:55 59.09486 -34.36141 37774 ft 437 kts 272°
2026-04-11 05:56 59.09539 -34.47964 37782 ft 437 kts 272°
2026-04-11 05:56 59.09581 -34.59798 37780 ft 438 kts 272°
2026-04-11 05:57 59.09613 -34.71658 37779 ft 439 kts 272°
2026-04-11 05:57 59.09633 -34.83446 37785 ft 439 kts 272°
2026-04-11 05:58 59.09642 -34.95306 37785 ft 439 kts 272°
2026-04-11 05:58 59.09641 -35.07182 37785 ft 439 kts 272°
2026-04-11 05:59 59.09629 -35.19054 37796 ft 439 kts 271°
2026-04-11 05:59 59.09606 -35.30832 37796 ft 439 kts 271°
2026-04-11 06:00 59.09573 -35.42700 37794 ft 438 kts 271°
2026-04-11 06:00 59.09528 -35.54525 37804 ft 436 kts 271°
2026-04-11 06:01 59.09474 -35.66290 37802 ft 435 kts 271°
2026-04-11 06:01 59.09409 -35.78019 37813 ft 437 kts 271°
2026-04-11 06:02 59.09333 -35.89842 37810 ft 437 kts 271°
2026-04-11 06:02 59.09245 -36.01664 37821 ft 437 kts 271°
2026-04-11 06:03 59.09148 -36.13472 37821 ft 437 kts 271°
2026-04-11 06:03 59.09040 -36.25204 37819 ft 436 kts 271°
2026-04-11 06:04 59.08921 -36.36986 37826 ft 435 kts 270°
2026-04-11 06:04 59.08791 -36.48768 37826 ft 435 kts 270°
2026-04-11 06:05 59.08652 -36.60527 37826 ft 435 kts 270°
2026-04-11 06:05 59.08502 -36.72231 37842 ft 435 kts 270°
2026-04-11 06:06 59.08256 -36.89905 37838 ft 437 kts 270°
2026-04-11 06:07 59.08078 -37.01704 37842 ft 437 kts 270°
2026-04-11 06:07 59.07889 -37.13508 37846 ft 437 kts 270°
2026-04-11 06:08 59.07691 -37.25229 37845 ft 437 kts 270°
2026-04-11 06:08 59.07481 -37.37029 37848 ft 437 kts 269°
2026-04-11 06:09 59.07260 -37.48818 37847 ft 437 kts 269°
2026-04-11 06:09 59.07029 -37.60611 37859 ft 437 kts 269°
2026-04-11 06:10 59.06789 -37.72332 37854 ft 437 kts 269°
2026-04-11 06:10 59.06536 -37.84102 37855 ft 436 kts 269°
2026-04-11 06:11 59.06273 -37.95887 37872 ft 436 kts 269°
2026-04-11 06:11 59.05999 -38.07658 37852 ft 436 kts 269°
2026-04-11 06:12 59.05715 -38.19425 37868 ft 436 kts 269°
2026-04-11 06:12 59.05422 -38.31115 37879 ft 436 kts 269°
2026-04-11 06:13 59.05117 -38.42880 37871 ft 436 kts 268°
2026-04-11 06:13 59.04800 -38.54656 37861 ft 436 kts 268°
2026-04-11 06:14 59.04473 -38.66424 37870 ft 436 kts 268°
2026-04-11 06:14 59.04138 -38.78087 37867 ft 436 kts 268°
2026-04-11 06:15 59.03791 -38.89824 37878 ft 436 kts 268°
2026-04-11 06:15 59.03432 -39.01574 37875 ft 436 kts 268°
2026-04-11 06:16 59.03062 -39.13346 37878 ft 437 kts 268°
2026-04-11 06:16 59.02681 -39.25121 37872 ft 437 kts 268°
2026-04-11 06:17 59.02293 -39.36795 37874 ft 437 kts 267°
2026-04-11 06:17 59.01891 -39.48573 37876 ft 437 kts 267°
2026-04-11 06:18 59.01478 -39.60353 37875 ft 437 kts 267°
2026-04-11 06:18 59.01054 -39.72112 37877 ft 437 kts 267°
2026-04-11 06:19 59.00623 -39.83793 37878 ft 437 kts 267°
2026-04-11 06:19 59.00171 -39.95569 37877 ft 437 kts 266°
2026-04-11 06:20 58.98926 -40.07116 37864 ft 439 kts 257°
2026-04-11 06:20 58.97232 -40.18511 37880 ft 439 kts 255°
2026-04-11 06:21 58.95478 -40.29766 37880 ft 440 kts 255°
2026-04-11 06:21 58.93707 -40.41104 37875 ft 440 kts 255°
2026-04-11 06:22 58.91938 -40.52434 37870 ft 440 kts 255°
2026-04-11 06:22 58.90164 -40.63759 37880 ft 440 kts 255°
2026-04-11 06:23 58.88381 -40.75067 37875 ft 439 kts 255°
2026-04-11 06:23 58.86603 -40.86270 37876 ft 439 kts 255°
2026-04-11 06:24 58.84802 -40.97538 37873 ft 439 kts 255°
2026-04-11 06:24 58.82991 -41.08794 37885 ft 439 kts 255°
2026-04-11 06:25 58.81173 -41.20028 37877 ft 439 kts 255°
2026-04-11 06:25 58.79354 -41.31192 37874 ft 439 kts 255°
2026-04-11 06:26 58.77517 -41.42396 37887 ft 437 kts 254°
2026-04-11 06:26 58.75677 -41.53540 37894 ft 436 kts 254°
2026-04-11 06:27 58.73830 -41.64671 37873 ft 436 kts 254°
2026-04-11 06:27 58.71986 -41.75709 37886 ft 436 kts 254°
2026-04-11 06:28 58.70115 -41.86836 37875 ft 438 kts 254°
2026-04-11 06:28 58.68233 -41.97962 37879 ft 438 kts 254°
2026-04-11 06:29 58.66339 -42.09092 37877 ft 438 kts 253°
2026-04-11 06:29 58.64436 -42.20202 37878 ft 438 kts 253°
2026-04-11 06:30 58.62537 -42.31226 37877 ft 438 kts 253°
2026-04-11 06:30 58.60617 -42.42299 37882 ft 438 kts 253°
2026-04-11 06:31 58.58685 -42.53379 37884 ft 438 kts 253°
2026-04-11 06:31 58.56745 -42.64440 37889 ft 437 kts 253°
2026-04-11 06:32 58.54817 -42.75359 37881 ft 435 kts 253°
2026-04-11 06:32 58.52871 -42.86321 37892 ft 435 kts 253°
2026-04-11 06:33 58.50915 -42.97271 37880 ft 435 kts 253°
2026-04-11 06:33 58.48949 -43.08220 37892 ft 435 kts 253°
2026-04-11 06:34 58.46989 -43.19063 37872 ft 435 kts 252°
2026-04-11 06:34 58.45006 -43.29979 37881 ft 434 kts 252°
2026-04-11 06:35 58.43017 -43.40855 37890 ft 434 kts 252°
2026-04-11 06:35 58.41019 -43.51725 37890 ft 435 kts 252°
2026-04-11 06:36 58.39020 -43.62536 37872 ft 435 kts 252°
2026-04-11 06:36 58.36999 -43.73405 37874 ft 435 kts 252°
2026-04-11 06:37 58.34972 -43.84246 37875 ft 435 kts 252°
2026-04-11 06:37 58.32937 -43.95061 37875 ft 433 kts 252°
2026-04-11 06:38 58.30915 -44.05754 37875 ft 433 kts 252°
2026-04-11 06:38 58.28869 -44.16511 37870 ft 433 kts 251°
2026-04-11 06:39 58.26816 -44.27249 37873 ft 433 kts 251°
2026-04-11 06:39 58.24751 -44.37987 37869 ft 433 kts 251°
2026-04-11 06:40 58.22677 -44.48712 37871 ft 432 kts 251°
2026-04-11 06:40 58.20614 -44.59319 37867 ft 432 kts 251°
2026-04-11 06:41 58.18528 -44.69989 37866 ft 432 kts 251°
2026-04-11 06:41 58.16433 -44.80650 37865 ft 431 kts 251°
2026-04-11 06:42 58.14345 -44.91217 37865 ft 431 kts 251°
2026-04-11 06:42 58.12234 -45.01845 37865 ft 432 kts 251°
2026-04-11 06:43 58.10110 -45.12478 37858 ft 432 kts 251°
2026-04-11 06:43 58.07978 -45.23090 37856 ft 431 kts 251°
2026-04-11 06:44 58.05840 -45.33680 37852 ft 431 kts 251°
2026-04-11 06:44 58.03709 -45.44182 37854 ft 431 kts 250°
2026-04-11 06:45 58.01552 -45.54752 37847 ft 432 kts 250°
2026-04-11 06:45 57.99390 -45.65296 37837 ft 431 kts 250°
2026-04-11 06:46 57.97220 -45.75821 37841 ft 430 kts 250°
2026-04-11 06:46 57.95059 -45.86244 37842 ft 430 kts 250°
2026-04-11 06:47 57.92878 -45.96715 37838 ft 430 kts 250°
2026-04-11 06:47 57.90686 -46.07186 37837 ft 430 kts 250°
2026-04-11 06:48 57.88487 -46.17632 37837 ft 430 kts 250°
2026-04-11 06:48 57.86278 -46.28075 37830 ft 429 kts 250°
2026-04-11 06:49 57.84084 -46.38390 37832 ft 428 kts 250°
2026-04-11 06:49 57.81869 -46.48758 37842 ft 428 kts 250°
2026-04-11 06:50 57.79644 -46.59119 37829 ft 429 kts 250°
2026-04-11 06:50 57.77420 -46.69423 37826 ft 429 kts 250°
2026-04-11 06:51 57.75171 -46.79787 37829 ft 429 kts 249°
2026-04-11 06:51 57.72917 -46.90125 37829 ft 428 kts 249°
2026-04-11 06:52 57.70661 -47.00421 37826 ft 428 kts 249°
2026-04-11 06:52 57.68394 -47.10716 37826 ft 428 kts 249°
2026-04-11 06:53 57.66135 -47.20924 37823 ft 428 kts 249°
2026-04-11 06:53 57.63853 -47.31187 37823 ft 428 kts 249°
2026-04-11 06:54 57.61562 -47.41438 37804 ft 428 kts 249°
2026-04-11 06:54 57.59268 -47.51654 37823 ft 426 kts 249°
2026-04-11 06:55 57.56988 -47.61757 37822 ft 426 kts 249°
2026-04-11 06:55 57.54684 -47.71923 37821 ft 426 kts 249°
2026-04-11 06:56 57.52372 -47.82070 37822 ft 426 kts 249°
2026-04-11 06:56 57.50050 -47.92218 37826 ft 426 kts 249°
2026-04-11 06:57 57.47737 -48.02273 37828 ft 427 kts 249°
2026-04-11 06:57 57.45393 -48.12417 37826 ft 428 kts 249°
2026-04-11 06:58 57.43035 -48.22571 37826 ft 428 kts 248°
2026-04-11 06:58 57.40675 -48.32689 37826 ft 428 kts 248°
2026-04-11 06:59 57.38302 -48.42813 37826 ft 428 kts 248°
2026-04-11 06:59 57.35939 -48.52847 37826 ft 428 kts 248°
2026-04-11 07:00 57.33556 -48.62918 37827 ft 426 kts 248°
2026-04-11 07:00 57.31172 -48.72946 37829 ft 425 kts 248°
2026-04-11 07:01 57.28796 -48.82896 37831 ft 425 kts 248°
2026-04-11 07:01 57.26398 -48.92892 37829 ft 426 kts 248°
2026-04-11 07:02 57.23993 -49.02873 37829 ft 426 kts 248°
2026-04-11 07:02 57.21579 -49.12841 37821 ft 425 kts 248°
2026-04-11 07:03 57.19177 -49.22716 37834 ft 423 kts 248°
2026-04-11 07:03 57.16765 -49.32587 37840 ft 423 kts 248°
2026-04-11 07:04 57.14341 -49.42466 37829 ft 423 kts 248°
2026-04-11 07:04 57.11907 -49.52338 37838 ft 424 kts 247°
2026-04-11 07:05 57.09456 -49.62236 37836 ft 425 kts 247°
2026-04-11 07:05 57.07016 -49.72046 37841 ft 424 kts 247°
2026-04-11 07:06 57.04555 -49.81892 37842 ft 423 kts 247°
2026-04-11 07:06 57.02093 -49.91702 37842 ft 423 kts 247°
2026-04-11 07:07 56.99620 -50.01515 37842 ft 423 kts 247°
2026-04-11 07:07 56.97235 -50.11309 37848 ft 423 kts 248°
2026-04-11 07:08 56.94878 -50.21189 37846 ft 423 kts 248°
2026-04-11 07:08 56.92507 -50.31037 37850 ft 422 kts 248°
2026-04-11 07:09 56.90121 -50.40846 37853 ft 421 kts 248°
2026-04-11 07:09 56.87725 -50.50630 37854 ft 421 kts 248°
2026-04-11 07:10 56.84137 -50.65205 37858 ft 421 kts 248°
2026-04-11 07:10 56.81722 -50.74962 37856 ft 421 kts 248°
2026-04-11 07:11 56.79302 -50.84695 37883 ft 420 kts 247°
2026-04-11 07:11 56.76897 -50.94327 37859 ft 420 kts 247°
2026-04-11 07:12 56.74469 -51.04011 37868 ft 421 kts 247°
2026-04-11 07:12 56.72027 -51.13706 37868 ft 421 kts 247°
2026-04-11 07:13 56.69578 -51.23384 37868 ft 421 kts 247°
2026-04-11 07:13 56.67123 -51.33047 37849 ft 421 kts 247°
2026-04-11 07:14 56.64684 -51.42602 37870 ft 419 kts 247°
2026-04-11 07:14 56.62225 -51.52198 37873 ft 419 kts 246°
2026-04-11 07:15 56.59762 -51.61766 37873 ft 418 kts 246°
2026-04-11 07:15 56.57290 -51.71328 37881 ft 418 kts 246°
2026-04-11 07:16 56.54829 -51.80810 37880 ft 418 kts 246°
2026-04-11 07:16 56.52345 -51.90338 37887 ft 418 kts 246°
2026-04-11 07:17 56.49856 -51.99843 37881 ft 417 kts 246°
2026-04-11 07:17 56.47367 -52.09308 37893 ft 417 kts 246°
2026-04-11 07:18 56.44885 -52.18708 37891 ft 417 kts 246°
2026-04-11 07:18 56.42382 -52.28152 37894 ft 417 kts 246°
2026-04-11 07:19 56.39871 -52.37583 37904 ft 417 kts 246°
2026-04-11 07:19 56.37352 -52.47002 37895 ft 416 kts 246°
2026-04-11 07:20 56.34854 -52.56307 37911 ft 415 kts 246°
2026-04-11 07:20 56.32336 -52.65651 37911 ft 414 kts 246°
2026-04-11 07:21 56.29811 -52.74980 37917 ft 414 kts 246°
2026-04-11 07:21 56.27277 -52.84304 37917 ft 414 kts 246°
2026-04-11 07:22 56.24738 -52.93606 37917 ft 414 kts 246°
2026-04-11 07:22 56.22209 -53.02834 37926 ft 413 kts 246°
2026-04-11 07:23 56.19665 -53.12084 37924 ft 413 kts 246°
2026-04-11 07:23 56.17117 -53.21307 37927 ft 413 kts 245°
2026-04-11 07:24 56.14558 -53.30534 37927 ft 413 kts 245°
2026-04-11 07:24 56.12011 -53.39684 37935 ft 413 kts 245°
2026-04-11 07:25 56.09442 -53.48874 37946 ft 413 kts 245°
2026-04-11 07:25 56.06861 -53.58069 37947 ft 413 kts 245°
2026-04-11 07:26 56.04273 -53.67251 37947 ft 413 kts 245°
2026-04-11 07:26 56.01679 -53.76419 37947 ft 413 kts 245°
2026-04-11 07:27 55.99081 -53.85568 37958 ft 413 kts 245°
2026-04-11 07:27 55.96489 -53.94656 37959 ft 413 kts 245°
2026-04-11 07:28 55.93877 -54.03779 37959 ft 413 kts 245°
2026-04-11 07:28 55.91263 -54.12875 37968 ft 411 kts 245°
2026-04-11 07:29 55.88646 -54.21945 37972 ft 411 kts 245°
2026-04-11 07:29 55.86042 -54.30937 37973 ft 411 kts 245°
2026-04-11 07:30 55.83413 -54.39978 37977 ft 411 kts 245°
2026-04-11 07:30 55.80775 -54.49014 37982 ft 411 kts 245°
2026-04-11 07:31 55.78136 -54.58020 37978 ft 411 kts 245°
2026-04-11 07:31 55.75492 -54.67009 37990 ft 410 kts 244°
2026-04-11 07:32 55.72864 -54.75911 38008 ft 410 kts 244°
2026-04-11 07:32 55.70206 -54.84878 37996 ft 411 kts 244°
2026-04-11 07:33 55.67538 -54.93846 37996 ft 411 kts 244°
2026-04-11 07:33 55.64864 -55.02796 37978 ft 411 kts 244°
2026-04-11 07:34 55.62205 -55.11666 38001 ft 410 kts 244°
2026-04-11 07:34 55.59530 -55.20554 38010 ft 409 kts 244°
2026-04-11 07:35 55.56848 -55.29433 38017 ft 409 kts 244°
2026-04-11 07:35 55.54164 -55.38285 38015 ft 409 kts 244°
2026-04-11 07:36 55.51468 -55.47145 38024 ft 409 kts 244°
2026-04-11 07:36 55.48786 -55.55922 38024 ft 409 kts 244°
2026-04-11 07:37 55.46091 -55.64713 38034 ft 407 kts 244°
2026-04-11 07:37 55.43406 -55.73434 38033 ft 401 kts 244°
2026-04-11 07:38 55.40752 -55.82026 38035 ft 399 kts 244°
2026-04-11 07:38 55.38110 -55.90552 38045 ft 399 kts 244°
2026-04-11 07:39 55.35448 -55.99112 38044 ft 400 kts 243°
2026-04-11 07:39 55.32770 -56.07688 38050 ft 400 kts 243°
2026-04-11 07:40 55.30093 -56.16232 38067 ft 399 kts 243°
2026-04-11 07:40 55.27411 -56.24762 38080 ft 399 kts 243°
2026-04-11 07:41 55.24739 -56.33228 38066 ft 399 kts 243°
2026-04-11 07:41 55.22047 -56.41727 38083 ft 399 kts 243°
2026-04-11 07:42 55.19347 -56.50223 38091 ft 399 kts 243°
2026-04-11 07:43 55.15311 -56.62866 38100 ft 397 kts 243°
2026-04-11 07:43 55.12611 -56.71287 38100 ft 397 kts 243°
2026-04-11 07:44 55.09907 -56.79691 38103 ft 397 kts 243°
2026-04-11 07:44 55.07199 -56.88079 38108 ft 397 kts 243°
2026-04-11 07:45 55.04482 -56.96384 38112 ft 398 kts 240°
2026-04-11 07:45 55.01005 -57.03918 38117 ft 401 kts 230°
2026-04-11 07:46 54.97053 -57.10780 38128 ft 401 kts 229°
2026-04-11 07:46 54.93031 -57.17510 38136 ft 401 kts 228°
2026-04-11 07:47 54.89035 -57.24186 38138 ft 401 kts 228°
2026-04-11 07:47 54.85023 -57.30908 38142 ft 401 kts 229°
2026-04-11 07:48 54.81014 -57.37622 38135 ft 400 kts 229°
2026-04-11 07:48 54.77010 -57.44310 38148 ft 399 kts 229°
2026-04-11 07:49 54.73012 -57.50973 38150 ft 400 kts 228°
2026-04-11 07:49 54.69020 -57.57603 38153 ft 401 kts 228°
2026-04-11 07:50 54.64989 -57.64275 38153 ft 401 kts 228°
2026-04-11 07:50 54.60957 -57.70928 38157 ft 401 kts 228°
2026-04-11 07:51 54.56956 -57.77513 38163 ft 399 kts 228°
2026-04-11 07:51 54.52935 -57.84111 38163 ft 399 kts 228°
2026-04-11 07:52 54.48911 -57.90699 38160 ft 399 kts 228°
2026-04-11 07:52 54.44880 -57.97278 38171 ft 400 kts 228°
2026-04-11 07:53 54.40844 -58.03846 38173 ft 399 kts 228°
2026-04-11 07:53 54.36836 -58.10351 38181 ft 399 kts 227°
2026-04-11 07:54 54.32791 -58.16895 38181 ft 400 kts 227°
2026-04-11 07:54 54.28748 -58.23419 38183 ft 400 kts 227°
2026-04-11 07:55 54.24697 -58.29937 38189 ft 400 kts 227°
2026-04-11 07:55 54.20673 -58.36392 38195 ft 399 kts 227°
2026-04-11 07:56 54.16633 -58.42855 38200 ft 397 kts 227°
2026-04-11 07:56 54.12596 -58.49295 38208 ft 397 kts 227°
2026-04-11 07:57 54.08560 -58.55717 38210 ft 397 kts 227°
2026-04-11 07:57 54.04519 -58.62128 38209 ft 397 kts 227°
2026-04-11 07:58 54.00498 -58.68491 38203 ft 397 kts 227°
2026-04-11 07:58 53.96466 -58.74851 38213 ft 395 kts 227°
2026-04-11 07:59 53.92433 -58.81195 38214 ft 395 kts 227°
2026-04-11 07:59 53.88398 -58.87529 38208 ft 395 kts 227°
2026-04-11 08:00 53.84393 -58.93797 38214 ft 395 kts 227°
2026-04-11 08:00 53.80352 -59.00102 38216 ft 395 kts 227°
2026-04-11 08:01 53.76318 -59.06378 38216 ft 393 kts 227°
2026-04-11 08:01 53.72292 -59.12627 38217 ft 393 kts 227°
2026-04-11 08:02 53.68288 -59.18826 38216 ft 393 kts 227°
2026-04-11 08:02 53.64248 -59.25062 38219 ft 393 kts 227°
2026-04-11 08:03 53.60208 -59.31281 38216 ft 393 kts 227°
2026-04-11 08:03 53.56174 -59.37473 38223 ft 392 kts 227°
2026-04-11 08:04 53.52164 -59.43612 38225 ft 392 kts 227°
2026-04-11 08:04 53.48129 -59.49775 38220 ft 392 kts 227°
2026-04-11 08:05 53.44086 -59.55932 38225 ft 392 kts 227°
2026-04-11 08:05 53.40045 -59.62070 38220 ft 392 kts 227°
2026-04-11 08:06 53.36038 -59.68136 38239 ft 391 kts 227°
2026-04-11 08:06 53.32005 -59.74233 38215 ft 390 kts 227°
2026-04-11 08:07 53.27970 -59.80313 38231 ft 390 kts 227°
2026-04-11 08:07 53.23934 -59.86377 38227 ft 391 kts 226°
2026-04-11 08:08 53.17900 -59.95414 38231 ft 389 kts 226°
2026-04-11 08:08 53.13873 -60.01426 38235 ft 389 kts 226°
2026-04-11 08:09 53.09844 -60.07424 38234 ft 389 kts 226°
2026-04-11 08:09 53.05836 -60.13378 38234 ft 389 kts 226°
2026-04-11 08:10 53.01802 -60.19354 38212 ft 389 kts 226°
2026-04-11 08:10 52.97769 -60.25310 38234 ft 387 kts 226°
2026-04-11 08:11 52.93752 -60.31229 38234 ft 386 kts 226°
2026-04-11 08:11 52.89730 -60.37142 38235 ft 386 kts 226°
2026-04-11 08:12 52.85738 -60.42995 38232 ft 386 kts 226°
2026-04-11 08:12 52.81709 -60.48886 38212 ft 386 kts 226°
2026-04-11 08:13 52.77686 -60.54751 38230 ft 385 kts 226°
2026-04-11 08:13 52.73674 -60.60588 38233 ft 384 kts 226°
2026-04-11 08:14 52.69687 -60.66373 38241 ft 385 kts 226°
2026-04-11 08:14 52.65659 -60.72205 38233 ft 386 kts 226°
2026-04-11 08:15 52.61618 -60.78039 38219 ft 386 kts 226°
2026-04-11 08:15 52.57583 -60.83847 38230 ft 385 kts 226°
2026-04-11 08:16 52.53578 -60.89599 38230 ft 385 kts 226°
2026-04-11 08:16 52.49541 -60.95383 38228 ft 385 kts 226°
2026-04-11 08:17 52.45506 -61.01150 38228 ft 385 kts 225°
2026-04-11 08:17 52.41465 -61.06910 38227 ft 385 kts 225°
2026-04-11 08:18 52.37446 -61.12624 38225 ft 385 kts 225°
2026-04-11 08:18 52.33402 -61.18360 38224 ft 385 kts 225°
2026-04-11 08:19 52.29348 -61.24096 38223 ft 385 kts 225°
2026-04-11 08:19 52.25294 -61.29816 38224 ft 385 kts 225°
2026-04-11 08:20 52.21266 -61.35486 38205 ft 385 kts 225°
2026-04-11 08:20 52.17215 -61.41174 38216 ft 384 kts 225°
2026-04-11 08:21 52.13163 -61.46849 38210 ft 384 kts 225°
2026-04-11 08:21 52.09112 -61.52509 38213 ft 384 kts 225°
2026-04-11 08:22 52.05081 -61.58128 38208 ft 384 kts 225°
2026-04-11 08:22 52.01026 -61.63765 38210 ft 384 kts 225°
2026-04-11 08:23 51.96974 -61.69384 38206 ft 383 kts 225°
2026-04-11 08:23 51.92920 -61.74992 38206 ft 383 kts 225°
2026-04-11 08:24 51.88865 -61.80589 38198 ft 383 kts 225°
2026-04-11 08:24 51.84838 -61.86134 38202 ft 383 kts 225°
2026-04-11 08:25 51.80776 -61.91711 38194 ft 383 kts 225°
2026-04-11 08:25 51.76717 -61.97271 38202 ft 382 kts 225°
2026-04-11 08:26 51.72663 -62.02811 38193 ft 382 kts 225°
2026-04-11 08:26 51.68628 -62.08312 38192 ft 382 kts 225°
2026-04-11 08:27 51.64566 -62.13836 38186 ft 382 kts 225°
2026-04-11 08:27 51.60500 -62.19354 38185 ft 382 kts 225°
2026-04-11 08:28 51.56430 -62.24861 38183 ft 382 kts 225°
2026-04-11 08:28 51.52389 -62.30316 38182 ft 382 kts 225°
2026-04-11 08:29 51.48313 -62.35806 38172 ft 382 kts 225°
2026-04-11 08:29 51.44235 -62.41286 38173 ft 382 kts 225°
2026-04-11 08:30 51.40158 -62.46751 38167 ft 382 kts 225°
2026-04-11 08:30 51.36101 -62.52175 38168 ft 382 kts 225°
2026-04-11 08:31 51.32018 -62.57620 38161 ft 382 kts 225°
2026-04-11 08:31 51.27928 -62.63063 38160 ft 382 kts 225°
2026-04-11 08:32 51.23838 -62.68494 38124 ft 383 kts 225°
2026-04-11 08:32 51.19769 -62.73884 38148 ft 383 kts 225°
2026-04-11 08:33 51.15674 -62.79295 38147 ft 383 kts 224°
2026-04-11 08:33 51.11569 -62.84705 38144 ft 383 kts 224°
2026-04-11 08:34 51.07466 -62.90100 38151 ft 383 kts 224°
2026-04-11 08:34 51.03355 -62.95494 38136 ft 383 kts 224°
2026-04-11 08:35 50.99271 -63.00838 38144 ft 383 kts 224°
2026-04-11 08:35 50.95153 -63.06214 38140 ft 383 kts 224°
2026-04-11 08:36 50.91037 -63.11576 38138 ft 383 kts 224°
2026-04-11 08:36 50.86912 -63.16936 38132 ft 383 kts 224°
2026-04-11 08:37 50.82816 -63.22246 38124 ft 383 kts 224°
2026-04-11 08:37 50.78684 -63.27591 38121 ft 384 kts 224°
2026-04-11 08:38 50.74552 -63.32923 38124 ft 384 kts 224°
2026-04-11 08:38 50.70411 -63.38254 38148 ft 384 kts 224°
2026-04-11 08:39 50.66300 -63.43533 38122 ft 384 kts 224°
2026-04-11 08:39 50.62157 -63.48841 38111 ft 384 kts 224°
2026-04-11 08:40 50.58015 -63.54136 38111 ft 384 kts 224°
2026-04-11 08:40 50.53867 -63.59428 38106 ft 384 kts 224°
2026-04-11 08:41 50.49743 -63.64674 38104 ft 384 kts 224°
2026-04-11 08:41 50.45592 -63.69942 38096 ft 384 kts 223°
2026-04-11 08:42 50.41434 -63.75207 38104 ft 384 kts 223°
2026-04-11 08:43 50.35898 -63.82199 38105 ft 384 kts 223°
2026-04-11 08:43 50.31058 -63.88295 38104 ft 384 kts 223°
2026-04-11 08:44 50.26895 -63.93526 38104 ft 384 kts 223°
2026-04-11 08:44 50.23427 -63.97872 38106 ft 384 kts 223°
2026-04-11 08:45 50.19257 -64.03090 38114 ft 384 kts 223°
2026-04-11 08:45 50.14403 -64.09146 38093 ft 384 kts 223°
2026-04-11 08:46 50.10930 -64.13469 38089 ft 384 kts 223°
2026-04-11 08:46 50.06751 -64.18661 38081 ft 384 kts 223°
2026-04-11 08:47 50.02563 -64.23852 38095 ft 385 kts 223°
2026-04-11 08:47 49.97685 -64.29884 38094 ft 385 kts 223°
2026-04-11 08:48 49.94195 -64.34188 38088 ft 386 kts 223°
2026-04-11 08:48 49.89995 -64.39357 38090 ft 386 kts 223°
2026-04-11 08:49 49.85787 -64.44526 38085 ft 386 kts 223°
2026-04-11 08:49 49.81573 -64.49690 38086 ft 386 kts 223°
2026-04-11 08:50 49.77381 -64.54814 38083 ft 386 kts 223°
2026-04-11 08:50 49.73164 -64.59957 38083 ft 386 kts 223°
2026-04-11 08:51 49.68941 -64.65097 38056 ft 386 kts 223°
2026-04-11 08:51 49.64719 -64.70223 38079 ft 386 kts 223°
2026-04-11 08:52 49.58403 -64.77871 38082 ft 386 kts 223°
2026-04-11 08:52 49.54170 -64.82981 38075 ft 386 kts 223°
2026-04-11 08:53 49.49935 -64.88083 38072 ft 387 kts 222°
2026-04-11 08:53 49.45705 -64.93168 38070 ft 386 kts 222°
2026-04-11 08:54 49.41497 -64.98214 38072 ft 386 kts 222°
2026-04-11 08:54 49.37261 -65.03283 38072 ft 386 kts 222°
2026-04-11 08:55 49.33020 -65.08346 38069 ft 386 kts 222°
2026-04-11 08:55 49.28779 -65.13398 38066 ft 387 kts 222°
2026-04-11 08:56 49.24558 -65.18416 38066 ft 387 kts 222°
2026-04-11 08:56 49.20298 -65.23468 38067 ft 387 kts 222°
2026-04-11 08:57 49.16038 -65.28508 38060 ft 387 kts 222°
2026-04-11 08:57 49.11775 -65.33535 38040 ft 387 kts 222°
2026-04-11 08:58 49.07539 -65.38528 38060 ft 388 kts 222°
2026-04-11 08:58 49.03263 -65.43556 38054 ft 388 kts 222°
2026-04-11 08:59 48.98979 -65.48581 38057 ft 389 kts 222°
2026-04-11 08:59 48.94699 -65.53590 38051 ft 388 kts 221°
2026-04-11 09:00 48.90438 -65.58565 38062 ft 389 kts 221°
2026-04-11 09:00 48.86152 -65.63557 38058 ft 388 kts 221°
2026-04-11 09:01 48.81867 -65.68537 38056 ft 388 kts 221°
2026-04-11 09:01 48.77574 -65.73518 38038 ft 388 kts 221°
2026-04-11 09:02 48.73304 -65.78455 38021 ft 388 kts 221°
2026-04-11 09:02 48.69019 -65.83405 38061 ft 387 kts 221°
2026-04-11 09:03 48.64732 -65.88345 38039 ft 387 kts 221°
2026-04-11 09:03 48.60444 -65.93276 38041 ft 387 kts 221°
2026-04-11 09:04 48.56155 -65.98195 38043 ft 387 kts 221°
2026-04-11 09:04 48.51886 -66.03082 38040 ft 387 kts 221°
2026-04-11 09:05 48.47590 -66.07988 38037 ft 387 kts 221°
2026-04-11 09:05 48.43291 -66.12887 38036 ft 388 kts 221°
2026-04-11 09:06 48.38987 -66.17782 38053 ft 387 kts 221°
2026-04-11 09:06 48.34714 -66.22631 38039 ft 388 kts 221°
2026-04-11 09:07 48.30408 -66.27507 38027 ft 388 kts 221°
2026-04-11 09:07 48.26098 -66.32377 38044 ft 388 kts 221°
2026-04-11 09:08 48.21796 -66.37225 38047 ft 386 kts 221°
2026-04-11 09:08 48.17535 -66.42020 38004 ft 385 kts 221°
2026-04-11 09:09 48.13244 -66.46837 38047 ft 386 kts 220°
2026-04-11 09:09 48.08945 -66.51653 38045 ft 386 kts 220°
2026-04-11 09:10 48.04646 -66.56458 38045 ft 386 kts 220°
2026-04-11 09:10 48.00374 -66.61224 38041 ft 386 kts 220°
2026-04-11 09:11 47.96072 -66.66013 38038 ft 386 kts 220°
2026-04-11 09:11 47.91760 -66.70801 38034 ft 386 kts 220°
2026-04-11 09:12 47.87449 -66.75579 38039 ft 386 kts 220°
2026-04-11 09:12 47.83133 -66.80353 38039 ft 386 kts 220°
2026-04-11 09:13 47.78840 -66.85091 38037 ft 387 kts 220°
2026-04-11 09:13 47.74518 -66.89851 38038 ft 387 kts 220°
2026-04-11 09:14 47.70183 -66.94614 38041 ft 387 kts 220°
2026-04-11 09:14 47.65854 -66.99363 38042 ft 387 kts 220°
2026-04-11 09:15 47.61547 -67.04076 38021 ft 387 kts 220°
2026-04-11 09:15 47.57206 -67.08817 38043 ft 388 kts 220°
2026-04-11 09:16 47.52859 -67.13554 38041 ft 388 kts 220°
2026-04-11 09:16 47.48537 -67.18254 38040 ft 388 kts 220°
2026-04-11 09:17 47.44186 -67.22975 38040 ft 388 kts 220°
2026-04-11 09:17 47.39832 -67.27690 38045 ft 388 kts 220°
2026-04-11 09:18 47.35179 -67.31792 38041 ft 394 kts 211°
2026-04-11 09:18 47.30207 -67.35204 38042 ft 394 kts 210°
2026-04-11 09:19 47.25250 -67.38555 38041 ft 395 kts 210°
2026-04-11 09:19 47.20259 -67.41917 38044 ft 395 kts 210°
2026-04-11 09:20 47.15265 -67.45273 38042 ft 394 kts 210°
2026-04-11 09:20 47.10275 -67.48620 38040 ft 394 kts 210°
2026-04-11 09:21 47.05313 -67.51941 38018 ft 395 kts 210°
2026-04-11 09:21 47.00316 -67.55279 38038 ft 395 kts 210°
2026-04-11 09:22 46.95311 -67.58614 38033 ft 395 kts 210°
2026-04-11 09:22 46.90306 -67.61944 38027 ft 395 kts 210°
2026-04-11 09:23 46.85298 -67.65268 37992 ft 395 kts 210°
2026-04-11 09:23 46.80315 -67.68569 38025 ft 396 kts 210°
2026-04-11 09:24 46.75301 -67.71883 38029 ft 396 kts 210°
2026-04-11 09:24 46.70278 -67.75197 38026 ft 396 kts 210°
2026-04-11 09:25 46.65255 -67.78504 38025 ft 396 kts 210°
2026-04-11 09:25 46.60267 -67.81782 38025 ft 396 kts 210°
2026-04-11 09:26 46.55242 -67.85076 38028 ft 396 kts 210°
2026-04-11 09:26 46.50220 -67.88363 38032 ft 396 kts 210°
2026-04-11 09:27 46.45193 -67.91645 38024 ft 396 kts 210°
2026-04-11 09:27 46.40201 -67.94898 38029 ft 396 kts 210°
2026-04-11 09:28 46.35170 -67.98171 38018 ft 396 kts 210°
2026-04-11 09:28 46.30137 -68.01438 38017 ft 396 kts 210°
2026-04-11 09:29 46.25103 -68.04699 38009 ft 396 kts 210°
2026-04-11 09:29 46.20105 -68.07929 38014 ft 396 kts 210°
2026-04-11 09:30 46.15065 -68.11181 38014 ft 396 kts 210°
2026-04-11 09:30 46.10035 -68.14420 38017 ft 396 kts 210°
2026-04-11 09:31 46.04998 -68.17656 38023 ft 396 kts 210°
2026-04-11 09:31 45.99999 -68.20862 38031 ft 396 kts 210°
2026-04-11 09:32 45.94969 -68.24082 38040 ft 396 kts 210°
2026-04-11 09:32 45.89937 -68.27296 38033 ft 396 kts 210°
2026-04-11 09:33 45.84900 -68.30507 38044 ft 396 kts 210°
2026-04-11 09:33 45.79901 -68.33687 38044 ft 396 kts 210°
2026-04-11 09:34 45.74860 -68.36888 38042 ft 396 kts 210°
2026-04-11 09:34 45.69826 -68.40077 38029 ft 396 kts 210°
2026-04-11 09:35 45.64786 -68.43265 38040 ft 396 kts 210°
2026-04-11 09:35 45.59777 -68.46427 38037 ft 396 kts 210°
2026-04-11 09:36 45.54735 -68.49603 38036 ft 396 kts 210°
2026-04-11 09:36 45.49690 -68.52775 38039 ft 396 kts 210°
2026-04-11 09:37 45.44650 -68.55937 38021 ft 396 kts 210°
2026-04-11 09:37 45.39641 -68.59074 38016 ft 396 kts 210°
2026-04-11 09:38 45.34605 -68.62222 38014 ft 395 kts 210°
2026-04-11 09:38 45.29569 -68.65364 38039 ft 396 kts 210°
2026-04-11 09:39 45.24523 -68.68506 38038 ft 396 kts 210°
2026-04-11 09:39 45.19476 -68.71642 38039 ft 396 kts 210°
2026-04-11 09:40 45.14461 -68.74752 38030 ft 396 kts 210°
2026-04-11 09:40 45.09408 -68.77880 38039 ft 397 kts 210°
2026-04-11 09:41 45.04348 -68.81006 38041 ft 397 kts 210°
2026-04-11 09:41 44.99285 -68.84128 38049 ft 397 kts 210°
2026-04-11 09:42 44.94259 -68.87221 38051 ft 397 kts 210°
2026-04-11 09:43 44.86662 -68.91885 38055 ft 397 kts 210°
2026-04-11 09:43 44.81598 -68.94987 38053 ft 397 kts 210°
2026-04-11 09:44 44.76563 -68.98064 38053 ft 397 kts 210°
2026-04-11 09:44 44.71499 -69.01154 38050 ft 397 kts 210°
2026-04-11 09:45 44.66429 -69.04241 38052 ft 397 kts 210°
2026-04-11 09:45 44.61356 -69.07324 38022 ft 397 kts 210°
2026-04-11 09:46 44.56281 -69.10404 38049 ft 398 kts 210°
2026-04-11 09:46 44.51227 -69.13464 38059 ft 399 kts 210°
2026-04-11 09:47 44.46132 -69.16542 38051 ft 399 kts 210°
2026-04-11 09:47 44.41033 -69.19617 38051 ft 399 kts 210°
2026-04-11 09:48 44.35927 -69.22693 38056 ft 400 kts 210°
2026-04-11 09:48 44.30837 -69.25751 38059 ft 401 kts 210°
2026-04-11 09:49 44.25713 -69.28823 38062 ft 401 kts 210°
2026-04-11 09:49 44.20593 -69.31888 38063 ft 401 kts 210°
2026-04-11 09:50 44.15463 -69.34953 38065 ft 401 kts 210°
2026-04-11 09:50 44.10365 -69.37993 38069 ft 401 kts 210°
2026-04-11 09:51 44.05231 -69.41049 38072 ft 402 kts 210°
2026-04-11 09:51 44.00086 -69.44105 38068 ft 402 kts 210°
2026-04-11 09:52 43.94946 -69.47153 38077 ft 402 kts 210°
2026-04-11 09:52 43.89829 -69.50182 38040 ft 402 kts 210°
2026-04-11 09:53 43.84679 -69.53224 38080 ft 403 kts 210°
2026-04-11 09:53 43.79510 -69.56272 38076 ft 404 kts 210°
2026-04-11 09:54 43.74341 -69.59314 38074 ft 404 kts 210°
2026-04-11 09:54 43.69113 -69.62080 38072 ft 409 kts 205°
2026-04-11 09:55 43.63676 -69.64422 38071 ft 409 kts 205°
2026-04-11 09:55 43.58255 -69.66820 38067 ft 409 kts 205°
2026-04-11 09:56 43.52844 -69.69243 38052 ft 409 kts 206°
2026-04-11 09:56 43.47462 -69.71660 38067 ft 410 kts 206°
2026-04-11 09:57 43.42038 -69.74093 37955 ft 408 kts 206°
2026-04-11 09:57 43.39337 -69.75303 37278 ft 410 kts 206°
2026-04-11 09:57 43.36619 -69.76524 36579 ft 413 kts 205°
2026-04-11 09:57 43.33885 -69.77747 35948 ft 414 kts 205°
2026-04-11 09:58 43.31148 -69.78971 35369 ft 413 kts 205°
2026-04-11 09:58 43.28454 -69.80172 34815 ft 412 kts 205°
2026-04-11 09:58 43.25728 -69.81387 34199 ft 411 kts 205°
2026-04-11 09:58 43.23003 -69.82600 33468 ft 412 kts 205°
2026-04-11 09:59 43.20276 -69.83816 32747 ft 412 kts 204°
2026-04-11 09:59 43.17555 -69.85027 31947 ft 412 kts 204°
2026-04-11 09:59 43.14819 -69.86246 31159 ft 414 kts 204°
2026-04-11 09:59 43.12086 -69.87456 30654 ft 410 kts 204°
2026-04-11 10:00 43.09428 -69.88632 30115 ft 404 kts 204°
2026-04-11 10:00 43.06787 -69.89797 28946 ft 393 kts 204°
2026-04-11 10:00 43.04202 -69.90942 27348 ft 390 kts 205°
2026-04-11 10:00 43.01639 -69.92080 26071 ft 383 kts 205°
2026-04-11 10:01 42.99152 -69.93183 25230 ft 368 kts 205°
2026-04-11 10:01 42.96764 -69.94231 24602 ft 356 kts 205°
2026-04-11 10:01 42.94405 -69.95275 23983 ft 356 kts 205°
2026-04-11 10:01 42.92053 -69.96317 23331 ft 354 kts 205°
2026-04-11 10:02 42.89744 -69.97338 22632 ft 354 kts 205°
2026-04-11 10:02 42.87390 -69.98380 21939 ft 357 kts 205°
2026-04-11 10:02 42.85029 -69.99422 21265 ft 358 kts 205°
2026-04-11 10:02 42.82658 -70.00466 20549 ft 358 kts 205°
2026-04-11 10:03 42.80284 -70.01511 19904 ft 359 kts 205°
2026-04-11 10:03 42.77907 -70.02555 19269 ft 359 kts 205°
2026-04-11 10:03 42.75527 -70.03601 18642 ft 359 kts 205°
2026-04-11 10:03 42.73174 -70.04720 17982 ft 358 kts 207°
2026-04-11 10:04 42.70874 -70.05879 17297 ft 357 kts 207°
2026-04-11 10:04 42.68543 -70.07051 16627 ft 357 kts 207°
2026-04-11 10:04 42.66310 -70.08445 15948 ft 349 kts 218°
2026-04-11 10:04 42.64575 -70.10633 15278 ft 335 kts 237°
2026-04-11 10:05 42.63463 -70.13297 14564 ft 315 kts 246°
2026-04-11 10:05 42.62582 -70.15889 14060 ft 290 kts 248°
2026-04-11 10:05 42.61767 -70.18313 13612 ft 278 kts 248°
2026-04-11 10:05 42.60963 -70.20694 13144 ft 278 kts 248°
2026-04-11 10:06 42.60263 -70.23138 12673 ft 278 kts 257°
2026-04-11 10:06 42.60000 -70.25695 12216 ft 278 kts 265°
2026-04-11 10:06 42.59883 -70.28322 11758 ft 279 kts 266°
2026-04-11 10:06 42.59776 -70.30951 11315 ft 279 kts 266°
2026-04-11 10:07 42.59663 -70.33586 10862 ft 280 kts 265°
2026-04-11 10:07 42.59546 -70.36225 10427 ft 280 kts 265°
2026-04-11 10:07 42.59427 -70.38859 9993 ft 280 kts 265°
2026-04-11 10:07 42.59305 -70.41494 9524 ft 280 kts 265°
2026-04-11 10:08 42.59182 -70.44125 9038 ft 279 kts 266°
2026-04-11 10:08 42.59060 -70.46717 8584 ft 278 kts 266°
2026-04-11 10:08 42.58936 -70.49337 8125 ft 278 kts 266°
2026-04-11 10:08 42.58812 -70.51949 7667 ft 277 kts 266°
2026-04-11 10:09 42.58687 -70.54545 7229 ft 275 kts 267°
2026-04-11 10:09 42.58443 -70.57089 6779 ft 267 kts 259°
2026-04-11 10:09 42.57970 -70.59451 6333 ft 251 kts 256°
2026-04-11 10:09 42.57477 -70.61677 5857 ft 243 kts 257°
2026-04-11 10:10 42.56994 -70.63868 5397 ft 243 kts 257°
2026-04-11 10:10 42.56517 -70.66041 4972 ft 244 kts 258°
2026-04-11 10:10 42.56034 -70.68249 4578 ft 245 kts 258°
2026-04-11 10:10 42.55625 -70.70486 4195 ft 245 kts 263°
2026-04-11 10:11 42.55341 -70.72760 3890 ft 242 kts 265°
2026-04-11 10:11 42.55083 -70.74986 3744 ft 239 kts 265°
2026-04-11 10:11 42.54827 -70.77211 3618 ft 240 kts 265°
2026-04-11 10:11 42.54568 -70.79447 3495 ft 240 kts 265°
2026-04-11 10:12 42.54311 -70.81657 3368 ft 240 kts 265°
2026-04-11 10:12 42.54053 -70.83847 3233 ft 231 kts 265°
2026-04-11 10:12 42.53790 -70.85962 3095 ft 224 kts 264°
2026-04-11 10:12 42.53387 -70.87973 3003 ft 218 kts 255°
2026-04-11 10:13 42.52760 -70.89793 2985 ft 211 kts 245°
2026-04-11 10:13 42.51906 -70.91443 2998 ft 217 kts 236°
2026-04-11 10:13 42.50824 -70.92898 2908 ft 223 kts 225°
2026-04-11 10:13 42.49516 -70.94036 2734 ft 226 kts 213°
2026-04-11 10:14 42.48012 -70.94718 2372 ft 235 kts 200°
2026-04-11 10:14 42.46460 -70.95393 2010 ft 232 kts 207°
2026-04-11 10:14 42.45031 -70.96272 1670 ft 217 kts 210°
2026-04-11 10:14 42.43691 -70.97018 1425 ft 200 kts 204°
2026-04-11 10:15 42.42421 -70.97605 1151 ft 186 kts 204°
2026-04-11 10:15 42.41260 -70.98209 898 ft 173 kts 204°
2026-04-11 10:15 42.40158 -70.98727 635 ft 162 kts 202°
2026-04-11 10:15 42.39168 -70.99209 422 ft 146 kts 204°
2026-04-11 10:16 42.38257 -70.99648 235 ft 133 kts 204°
2026-04-11 10:16 42.37398 -71.00070 59 ft 131 kts 204°
2026-04-11 10:16 42.36625 -71.00451 30 ft 95 kts 199°
2026-04-11 10:16 42.36171 -71.00666 30 ft 44 kts 199°
2026-04-11 10:17 42.35996 -71.00786 30 ft 20 kts 229°
2026-04-11 10:17 42.35974 -71.00822 31 ft 20 kts 231°
2026-04-11 10:17 42.35932 -71.00893 29 ft 13 kts 231°
2026-04-11 10:17 42.35879 -71.00978 29 ft 12 kts 230°
2026-04-11 10:18 42.35833 -71.01080 29 ft 13 kts 258°
2026-04-11 10:18 42.35842 -71.01205 29 ft 14 kts 278°
2026-04-11 10:18 42.35856 -71.01339 29 ft 15 kts 276°
2026-04-11 10:18 42.35871 -71.01469 29 ft 9 kts 281°
2026-04-11 10:19 42.35897 -71.01534 29 ft 6 kts 339°
2026-04-11 10:19 42.35944 -71.01522 29 ft 8 kts 19°
2026-04-11 10:19 42.36002 -71.01494 29 ft 10 kts 19°
2026-04-11 10:19 42.36069 -71.01462 29 ft 11 kts 19°
2026-04-11 10:20 42.36149 -71.01425 29 ft 13 kts 19°
2026-04-11 10:20 42.36238 -71.01381 29 ft 14 kts 20°
2026-04-11 10:20 42.36336 -71.01333 29 ft 16 kts 19°
2026-04-11 10:20 42.36443 -71.01282 30 ft 17 kts 19°
2026-04-11 10:21 42.36557 -71.01227 30 ft 18 kts 20°
2026-04-11 10:21 42.36678 -71.01168 30 ft 18 kts 19°
2026-04-11 10:21 42.36760 -71.01141 30 ft 11 kts 357°
2026-04-11 10:21 42.36827 -71.01196 30 ft 12 kts 315°
2026-04-11 10:22 42.36890 -71.01281 30 ft 13 kts 315°
2026-04-11 10:22 42.36959 -71.01373 28 ft 14 kts 315°
2026-04-11 10:22 42.37033 -71.01473 30 ft 16 kts 315°
2026-04-11 10:22 42.37112 -71.01579 30 ft 16 kts 315°
2026-04-11 10:23 42.37196 -71.01691 29 ft 17 kts 315°
2026-04-11 10:23 42.37274 -71.01795 30 ft 6 kts 315°
2026-04-11 10:23 42.37299 -71.01836 29 ft 6 kts 296°
2026-04-11 10:23 42.37291 -71.01883 29 ft 5 kts 227°
2026-04-11 10:24 42.37259 -71.01916 29 ft 7 kts 218°
2026-04-11 10:24 42.37234 -71.01971 29 ft 8 kts 255°
2026-04-11 10:24 42.37236 -71.02047 30 ft 9 kts 278°
2026-04-11 10:24 42.37235 -71.02133 30 ft 10 kts 253°
2026-04-11 10:25 42.37187 -71.02196 30 ft 10 kts 219°
2026-04-11 10:25 42.37142 -71.02260 30 ft 8 kts 240°
2026-04-11 10:25 42.37110 -71.02323 28 ft 9 kts 221°
2026-04-11 10:25 42.37068 -71.02353 30 ft 6 kts 205°
2026-04-11 10:26 42.37057 -71.02360 30 ft 2 kts 206°
2026-04-11 10:26 42.37056 -71.02361 30 ft 0 kts 206°